Time,TemperatureF,DewpointF,PressureIn,WindDirection,WindDirectionDegrees,WindSpeedMPH,WindSpeedGustMPH,Humidity,HourlyPrecipIn,Conditions,Clouds,dailyrainin,SoftwareType,DateUTC
2013-02-10 00:00:00,38.7,29.0,29.86,NNE,32,3.0,5.0,68,0.00,CLR,,0.00,WeatherDisplay:10.37,2013-02-09 23:00:00,
2013-02-10 00:15:00,38.6,29.3,29.86,NNE,26,1.0,2.0,69,0.00,CLR,,0.00,WeatherDisplay:10.37,2013-02-09 23:15:00,
2013-02-10 00:20:00,38.6,29.3,29.86,NNE,22,0.0,1.0,69,0.00,CLR,,0.00,WeatherDisplay:10.37,2013-02-09 23:20:00,
2013-02-10 00:30:00,38.8,29.5,29.86,NNE,21,2.0,3.0,69,0.00,CLR,,0.00,WeatherDisplay:10.37,2013-02-09 23:30:00,
2013-02-10 00:40:00,38.9,29.6,29.86,NNE,21,1.0,2.0,69,0.00,CLR,,0.00,WeatherDisplay:10.37,2013-02-09 23:40:00,
2013-02-10 00:50:00,38.6,29.3,29.86,NNE,30,2.0,3.0,69,0.00,CLR,,0.00,WeatherDisplay:10.37,2013-02-09 23:50:00,
2013-02-10 01:01:00,38.3,29.0,29.86,NE,40,3.0,5.0,69,0.00,CLR,,0.00,WeatherDisplay:10.37,2013-02-10 00:01:00,
2013-02-10 01:10:00,37.9,28.6,29.86,NE,42,3.0,7.0,69,0.00,CLR,,0.00,WeatherDisplay:10.37,2013-02-10 00:10:00,
2013-02-10 01:20:00,37.7,28.4,29.86,NNE,24,2.0,5.0,69,0.00,CLR,,0.00,WeatherDisplay:10.37,2013-02-10 00:20:00,
2013-02-10 01:30:00,37.8,28.2,29.86,NNE,33,3.0,5.0,68,0.00,CLR,,0.00,WeatherDisplay:10.37,2013-02-10 00:30:00,
2013-02-10 01:40:00,37.7,28.1,29.86,NE,36,1.0,4.0,68,0.00,CLR,,0.00,WeatherDisplay:10.37,2013-02-10 00:40:00,
2013-02-10 01:50:00,38.0,28.0,29.87,NNE,21,0.0,3.0,67,0.00,CLR,,0.00,WeatherDisplay:10.37,2013-02-10 00:50:00,
2013-02-10 02:00:00,38.4,28.4,29.87,NE,35,2.0,4.0,67,0.00,CLR,,0.00,WeatherDisplay:10.37,2013-02-10 01:00:00,
2013-02-10 02:10:00,38.6,28.2,29.87,NE,40,1.0,3.0,66,0.00,CLR,,0.00,WeatherDisplay:10.37,2013-02-10 01:10:00,
2013-02-10 02:20:00,38.7,28.3,29.87,NE,35,3.0,5.0,66,0.00,CLR,,0.00,WeatherDisplay:10.37,2013-02-10 01:20:00,
2013-02-10 02:30:00,38.8,28.0,29.87,NE,35,3.0,5.0,65,0.00,CLR,,0.00,WeatherDisplay:10.37,2013-02-10 01:30:00,
2013-02-10 02:40:00,38.8,28.1,29.86,NE,36,3.0,5.0,65,0.00,CLR,,0.00,WeatherDisplay:10.37,2013-02-10 01:40:00,
2013-02-10 02:50:00,38.7,28.0,29.86,NE,35,3.0,4.0,65,0.00,CLR,,0.00,WeatherDisplay:10.37,2013-02-10 01:50:00,
2013-02-10 03:00:00,38.4,28.0,29.86,NNE,26,2.0,5.0,66,0.00,CLR,,0.00,WeatherDisplay:10.37,2013-02-10 02:00:00,
2013-02-10 03:10:00,38.4,28.0,29.86,NE,45,0.0,3.0,66,0.00,CLR,,0.00,WeatherDisplay:10.37,2013-02-10 02:10:00,
2013-02-10 03:20:00,38.6,28.2,29.86,NE,39,0.0,0.0,66,0.00,CLR,,0.00,WeatherDisplay:10.37,2013-02-10 02:20:00,
2013-02-10 03:31:00,38.7,28.3,29.85,NE,50,1.0,3.0,66,0.00,CLR,,0.00,WeatherDisplay:10.37,2013-02-10 02:31:00,
2013-02-10 03:40:00,38.7,27.9,29.85,ENE,61,1.0,3.0,65,0.00,CLR,,0.00,WeatherDisplay:10.37,2013-02-10 02:40:00,
2013-02-10 03:50:00,38.5,27.7,29.85,NE,56,1.0,3.0,65,0.00,CLR,,0.00,WeatherDisplay:10.37,2013-02-10 02:50:00,
2013-02-10 04:00:00,38.2,27.8,29.85,NE,49,1.0,3.0,66,0.00,CLR,,0.00,WeatherDisplay:10.37,2013-02-10 03:00:00,
2013-02-10 04:10:00,38.2,27.8,29.85,NE,47,3.0,4.0,66,0.00,CLR,,0.00,WeatherDisplay:10.37,2013-02-10 03:10:00,
2013-02-10 04:20:00,38.2,27.8,29.85,NE,37,1.0,3.0,66,0.00,CLR,,0.00,WeatherDisplay:10.37,2013-02-10 03:20:00,
2013-02-10 04:30:00,38.4,28.0,29.85,NE,44,1.0,4.0,66,0.00,CLR,,0.00,WeatherDisplay:10.37,2013-02-10 03:30:00,
2013-02-10 04:40:00,38.2,27.9,29.85,NE,34,2.0,3.0,66,0.00,CLR,,0.00,WeatherDisplay:10.37,2013-02-10 03:40:00,
2013-02-10 04:51:00,38.2,27.8,29.85,NNE,27,0.0,3.0,66,0.00,CLR,,0.00,WeatherDisplay:10.37,2013-02-10 03:51:00,
2013-02-10 05:00:00,38.3,27.9,29.85,NNE,22,0.0,1.0,66,0.00,CLR,,0.00,WeatherDisplay:10.37,2013-02-10 04:00:00,
2013-02-10 05:10:00,38.6,28.2,29.85,NE,45,1.0,3.0,66,0.00,CLR,,0.00,WeatherDisplay:10.37,2013-02-10 04:10:00,
2013-02-10 05:20:00,38.5,27.7,29.85,NE,39,3.0,6.0,65,0.00,CLR,,0.00,WeatherDisplay:10.37,2013-02-10 04:20:00,
2013-02-10 05:30:00,38.3,27.9,29.85,NNE,31,3.0,5.0,66,0.00,CLR,,0.00,WeatherDisplay:10.37,2013-02-10 04:30:00,
2013-02-10 05:40:00,38.5,27.8,29.85,NE,35,3.0,5.0,65,0.00,CLR,,0.00,WeatherDisplay:10.37,2013-02-10 04:40:00,
2013-02-10 05:50:00,38.8,28.0,29.85,NE,42,3.0,6.0,65,0.00,CLR,,0.00,WeatherDisplay:10.37,2013-02-10 04:50:00,
2013-02-10 06:00:00,38.7,27.9,29.85,NE,42,5.0,6.0,65,0.00,CLR,,0.00,WeatherDisplay:10.37,2013-02-10 05:00:00,
2013-02-10 06:10:00,38.4,27.7,29.85,NE,34,3.0,7.0,65,0.00,CLR,,0.00,WeatherDisplay:10.37,2013-02-10 05:10:00,
2013-02-10 06:20:00,38.7,27.9,29.85,NNE,32,3.0,7.0,65,0.00,CLR,,0.00,WeatherDisplay:10.37,2013-02-10 05:20:00,
2013-02-10 06:30:00,38.7,27.9,29.85,NNW,340,0.0,3.0,65,0.00,CLR,,0.00,WeatherDisplay:10.37,2013-02-10 05:30:00,
2013-02-10 06:40:00,38.8,28.0,29.85,NE,47,0.0,2.0,65,0.00,CLR,,0.00,WeatherDisplay:10.37,2013-02-10 05:40:00,
2013-02-10 06:50:00,38.9,27.7,29.85,NE,34,3.0,5.0,64,0.00,CLR,,0.00,WeatherDisplay:10.37,2013-02-10 05:50:00,
2013-02-10 07:00:00,38.8,27.7,29.85,NE,36,1.0,4.0,64,0.00,CLR,,0.00,WeatherDisplay:10.37,2013-02-10 06:00:00,
2013-02-10 07:10:00,38.9,28.1,29.85,NE,44,2.0,4.0,65,0.00,CLR,,0.00,WeatherDisplay:10.37,2013-02-10 06:10:00,
2013-02-10 07:20:00,38.8,27.7,29.86,NNE,12,1.0,3.0,64,0.00,CLR,,0.00,WeatherDisplay:10.37,2013-02-10 06:20:00,
2013-02-10 07:30:00,38.7,27.6,29.86,North,6,0.0,2.0,64,0.00,CLR,,0.00,WeatherDisplay:10.37,2013-02-10 06:30:00,
2013-02-10 07:40:00,38.3,27.2,29.87,NNE,12,2.0,6.0,64,0.00,CLR,,0.00,WeatherDisplay:10.37,2013-02-10 06:40:00,
2013-02-10 07:50:00,37.5,27.2,29.87,North,351,2.0,4.0,66,0.00,CLR,,0.00,WeatherDisplay:10.37,2013-02-10 06:50:00,
2013-02-10 08:00:00,37.7,27.7,29.87,NE,48,2.0,5.0,67,0.00,CLR,,0.00,WeatherDisplay:10.37,2013-02-10 07:00:00,
2013-02-10 08:10:00,38.0,27.3,29.87,North,357,0.0,3.0,65,0.00,CLR,,0.00,WeatherDisplay:10.37,2013-02-10 07:10:00,
2013-02-10 08:20:00,38.4,28.0,29.88,NNW,331,1.0,3.0,66,0.00,CLR,,0.00,WeatherDisplay:10.37,2013-02-10 07:20:00,
2013-02-10 08:30:00,38.2,27.5,29.88,NE,42,2.0,3.0,65,0.00,CLR,,0.00,WeatherDisplay:10.37,2013-02-10 07:30:00,
2013-02-10 08:40:00,38.2,27.5,29.87,NE,41,2.0,4.0,65,0.00,CLR,,0.00,WeatherDisplay:10.37,2013-02-10 07:40:00,
2013-02-10 08:50:00,38.3,27.2,29.88,NNE,26,3.0,4.0,64,0.00,CLR,,0.00,WeatherDisplay:10.37,2013-02-10 07:50:00,
2013-02-10 09:00:00,38.6,27.1,29.88,NE,45,2.0,5.0,63,0.00,CLR,,0.00,WeatherDisplay:10.37,2013-02-10 08:00:00,
2013-02-10 09:15:00,39.5,27.5,29.87,East,95,2.0,5.0,62,0.00,CLR,,0.00,WeatherDisplay:10.37,2013-02-10 08:15:00,
2013-02-10 09:20:00,39.8,27.8,29.88,East,91,1.0,3.0,62,0.00,CLR,,0.00,WeatherDisplay:10.37,2013-02-10 08:20:00,
2013-02-10 09:30:00,40.1,28.1,29.88,NE,36,2.0,3.0,62,0.00,CLR,,0.00,WeatherDisplay:10.37,2013-02-10 08:30:00,
2013-02-10 09:40:00,41.3,28.9,29.88,ENE,60,1.0,3.0,61,0.00,CLR,,0.00,WeatherDisplay:10.37,2013-02-10 08:40:00,
2013-02-10 09:50:00,42.2,28.9,29.88,North,8,2.0,3.0,59,0.00,CLR,,0.00,WeatherDisplay:10.37,2013-02-10 08:50:00,
2013-02-10 10:00:00,42.0,28.7,29.88,NNE,30,2.0,6.0,59,0.00,CLR,,0.00,WeatherDisplay:10.37,2013-02-10 09:00:00,
2013-02-10 10:10:00,42.7,28.9,29.87,NNE,30,1.0,4.0,58,0.00,CLR,,0.00,WeatherDisplay:10.37,2013-02-10 09:10:00,
2013-02-10 10:20:00,43.1,28.9,29.88,NE,45,2.0,4.0,57,0.00,CLR,,0.00,WeatherDisplay:10.37,2013-02-10 09:20:00,
2013-02-10 10:30:00,43.4,29.2,29.88,NE,45,3.0,6.0,57,0.00,CLR,,0.00,WeatherDisplay:10.37,2013-02-10 09:30:00,
2013-02-10 10:40:00,43.5,28.9,29.88,NE,56,5.0,7.0,56,0.00,CLR,,0.00,WeatherDisplay:10.37,2013-02-10 09:40:00,
2013-02-10 10:50:00,42.9,28.3,29.89,NNE,25,5.0,7.0,56,0.00,CLR,,0.00,WeatherDisplay:10.37,2013-02-10 09:50:00,
2013-02-10 11:00:00,43.0,27.9,29.89,NNE,33,6.0,9.0,55,0.00,CLR,,0.00,WeatherDisplay:10.37,2013-02-10 10:00:00,
2013-02-10 11:10:00,43.1,28.0,29.89,NNE,18,5.0,9.0,55,0.00,CLR,,0.00,WeatherDisplay:10.37,2013-02-10 10:10:00,
2013-02-10 11:20:00,43.2,28.1,29.89,NNE,22,5.0,8.0,55,0.00,CLR,,0.00,WeatherDisplay:10.37,2013-02-10 10:20:00,
2013-02-10 11:30:00,43.3,27.3,29.89,NNE,32,5.0,10.0,53,0.00,CLR,,0.00,WeatherDisplay:10.37,2013-02-10 10:30:00,
2013-02-10 11:40:00,43.8,26.9,29.89,NNE,28,2.0,9.0,51,0.00,CLR,,0.00,WeatherDisplay:10.37,2013-02-10 10:40:00,
2013-02-10 11:50:00,43.9,26.0,29.89,NE,38,7.0,12.0,49,0.00,CLR,,0.00,WeatherDisplay:10.37,2013-02-10 10:50:00,
2013-02-10 12:01:00,43.3,24.9,29.89,NNE,28,5.0,12.0,48,0.00,CLR,,0.00,WeatherDisplay:10.37,2013-02-10 11:01:00,
2013-02-10 12:10:00,43.4,24.0,29.90,North,7,7.0,12.0,46,0.00,CLR,,0.00,WeatherDisplay:10.37,2013-02-10 11:10:00,
2013-02-10 12:20:00,44.1,24.6,29.90,NE,35,7.0,12.0,46,0.00,CLR,,0.00,WeatherDisplay:10.37,2013-02-10 11:20:00,
2013-02-10 12:30:00,44.0,24.5,29.90,NNE,14,3.0,8.0,46,0.00,CLR,,0.00,WeatherDisplay:10.37,2013-02-10 11:30:00,
2013-02-10 12:40:00,44.7,24.6,29.90,NNE,14,6.0,10.0,45,0.00,CLR,,0.00,WeatherDisplay:10.37,2013-02-10 11:40:00,
2013-02-10 12:50:00,44.1,24.6,29.90,NNE,20,5.0,8.0,46,0.00,CLR,,0.00,WeatherDisplay:10.37,2013-02-10 11:50:00,
2013-02-10 13:00:00,44.7,24.1,29.90,NNE,30,5.0,7.0,44,0.00,CLR,,0.00,WeatherDisplay:10.37,2013-02-10 12:00:00,
2013-02-10 13:10:00,44.4,23.9,29.90,NNW,346,5.0,8.0,44,0.00,CLR,,0.00,WeatherDisplay:10.37,2013-02-10 12:10:00,
2013-02-10 13:20:00,45.0,24.3,29.89,NE,45,3.0,8.0,44,0.00,CLR,,0.00,WeatherDisplay:10.37,2013-02-10 12:20:00,
2013-02-10 13:30:00,45.3,24.1,29.89,NE,52,5.0,12.0,43,0.00,CLR,,0.00,WeatherDisplay:10.37,2013-02-10 12:30:00,
2013-02-10 13:40:00,44.3,23.2,29.89,NNE,13,3.0,9.0,43,0.00,CLR,,0.00,WeatherDisplay:10.37,2013-02-10 12:40:00,
2013-02-10 13:50:00,44.6,23.5,29.89,West,276,3.0,7.0,43,0.00,CLR,,0.00,WeatherDisplay:10.37,2013-02-10 12:50:00,
2013-02-10 14:00:00,45.4,23.6,29.89,NNE,23,6.0,8.0,42,0.00,CLR,,0.00,WeatherDisplay:10.37,2013-02-10 13:00:00,
2013-02-10 14:10:00,45.8,22.8,29.89,NW,325,3.0,6.0,40,0.00,CLR,,0.00,WeatherDisplay:10.37,2013-02-10 13:10:00,
2013-02-10 14:20:00,45.0,22.7,29.89,NNE,24,2.0,7.0,41,0.00,CLR,,0.00,WeatherDisplay:10.37,2013-02-10 13:20:00,
2013-02-10 14:30:00,45.7,23.4,29.89,NE,38,3.0,7.0,41,0.00,CLR,,0.00,WeatherDisplay:10.37,2013-02-10 13:30:00,
2013-02-10 14:40:00,45.6,23.3,29.89,NE,46,5.0,8.0,41,0.00,CLR,,0.00,WeatherDisplay:10.37,2013-02-10 13:40:00,
2013-02-10 14:50:00,46.1,23.7,29.89,East,82,2.0,4.0,41,0.00,CLR,,0.00,WeatherDisplay:10.37,2013-02-10 13:50:00,
2013-02-10 15:00:00,45.9,23.5,29.89,NNW,332,2.0,6.0,41,0.00,CLR,,0.00,WeatherDisplay:10.37,2013-02-10 14:00:00,
2013-02-10 15:10:00,45.0,21.5,29.89,NNE,14,6.0,8.0,39,0.00,CLR,,0.00,WeatherDisplay:10.37,2013-02-10 14:10:00,
2013-02-10 15:20:00,44.8,22.0,29.89,NNE,26,2.0,6.0,40,0.00,CLR,,0.00,WeatherDisplay:10.37,2013-02-10 14:20:00,
2013-02-10 15:30:00,45.6,22.0,29.89,NNE,17,5.0,9.0,39,0.00,CLR,,0.00,WeatherDisplay:10.37,2013-02-10 14:30:00,
2013-02-10 15:40:00,46.0,22.4,29.89,NNE,31,5.0,8.0,39,0.00,CLR,,0.00,WeatherDisplay:10.37,2013-02-10 14:40:00,
2013-02-10 15:50:00,45.9,22.9,29.89,NNE,23,3.0,10.0,40,0.00,CLR,,0.00,WeatherDisplay:10.37,2013-02-10 14:50:00,
2013-02-10 16:00:00,45.8,23.4,29.89,North,10,5.0,7.0,41,0.00,CLR,,0.00,WeatherDisplay:10.37,2013-02-10 15:00:00,
2013-02-10 16:10:00,45.7,23.9,29.89,NNW,344,5.0,8.0,42,0.00,CLR,,0.00,WeatherDisplay:10.37,2013-02-10 15:10:00,
2013-02-10 16:20:00,45.6,24.9,29.89,North,350,1.0,5.0,44,0.00,CLR,,0.00,WeatherDisplay:10.37,2013-02-10 15:20:00,
2013-02-10 16:30:00,46.0,26.9,29.90,NW,313,5.0,9.0,47,0.00,CLR,,0.00,WeatherDisplay:10.37,2013-02-10 15:30:00,
2013-02-10 16:40:00,45.8,26.7,29.90,WNW,298,6.0,12.0,47,0.00,CLR,,0.00,WeatherDisplay:10.37,2013-02-10 15:40:00,
2013-02-10 16:50:00,44.6,26.1,29.90,WNW,294,6.0,12.0,48,0.00,CLR,,0.00,WeatherDisplay:10.37,2013-02-10 15:50:00,
2013-02-10 17:00:00,44.7,26.1,29.90,West,278,2.0,9.0,48,0.00,CLR,,0.00,WeatherDisplay:10.37,2013-02-10 16:00:00,
2013-02-10 17:10:00,44.2,25.7,29.90,WNW,288,3.0,6.0,48,0.00,CLR,,0.00,WeatherDisplay:10.37,2013-02-10 16:10:00,
2013-02-10 17:20:00,44.0,25.5,29.90,NW,305,5.0,9.0,48,0.00,CLR,,0.00,WeatherDisplay:10.37,2013-02-10 16:20:00,
2013-02-10 17:30:00,43.6,25.6,29.91,NW,312,3.0,8.0,49,0.00,CLR,,0.00,WeatherDisplay:10.37,2013-02-10 16:30:00,
2013-02-10 17:40:00,43.3,25.9,29.91,NW,313,5.0,7.0,50,0.00,CLR,,0.00,WeatherDisplay:10.37,2013-02-10 16:40:00,
2013-02-10 17:50:00,43.2,25.8,29.91,NNW,327,1.0,4.0,50,0.00,CLR,,0.00,WeatherDisplay:10.37,2013-02-10 16:50:00,
2013-02-10 18:00:00,43.1,25.2,29.91,NW,319,1.0,5.0,49,0.00,CLR,,0.00,WeatherDisplay:10.37,2013-02-10 17:00:00,
2013-02-10 18:10:00,42.9,25.5,29.91,NW,312,3.0,6.0,50,0.00,CLR,,0.00,WeatherDisplay:10.37,2013-02-10 17:10:00,
2013-02-10 18:20:00,42.8,26.4,29.92,WNW,303,3.0,5.0,52,0.00,CLR,,0.00,WeatherDisplay:10.37,2013-02-10 17:20:00,
2013-02-10 18:30:00,42.9,27.4,29.92,NW,304,1.0,5.0,54,0.00,CLR,,0.00,WeatherDisplay:10.37,2013-02-10 17:30:00,
2013-02-10 18:40:00,43.0,27.9,29.92,NNW,329,0.0,2.0,55,0.00,CLR,,0.00,WeatherDisplay:10.37,2013-02-10 17:40:00,
2013-02-10 18:50:00,43.1,28.0,29.92,North,6,0.0,3.0,55,0.00,CLR,,0.00,WeatherDisplay:10.37,2013-02-10 17:50:00,
2013-02-10 19:00:00,43.1,28.0,29.92,NNE,29,2.0,4.0,55,0.00,CLR,,0.00,WeatherDisplay:10.37,2013-02-10 18:00:00,
2013-02-10 19:10:00,43.1,28.5,29.92,NE,46,1.0,4.0,56,0.00,CLR,,0.00,WeatherDisplay:10.37,2013-02-10 18:10:00,
2013-02-10 19:20:00,42.4,26.9,29.92,NE,51,2.0,5.0,54,0.00,CLR,,0.00,WeatherDisplay:10.37,2013-02-10 18:20:00,
2013-02-10 19:30:00,42.2,26.7,29.93,ENE,70,2.0,3.0,54,0.00,CLR,,0.00,WeatherDisplay:10.37,2013-02-10 18:30:00,
2013-02-10 19:40:00,42.0,27.0,29.93,ESE,104,2.0,5.0,55,0.00,CLR,,0.00,WeatherDisplay:10.37,2013-02-10 18:40:00,
2013-02-10 19:50:00,42.0,26.5,29.93,ENE,67,3.0,4.0,54,0.00,CLR,,0.00,WeatherDisplay:10.37,2013-02-10 18:50:00,
2013-02-10 20:00:00,41.8,26.4,29.93,ENE,59,7.0,10.0,54,0.00,CLR,,0.00,WeatherDisplay:10.37,2013-02-10 19:00:00,
2013-02-10 20:10:00,40.4,26.4,29.92,NE,36,6.0,8.0,57,0.00,CLR,,0.00,WeatherDisplay:10.37,2013-02-10 19:10:00,
2013-02-10 20:20:00,39.6,26.4,29.93,NNE,16,5.0,7.0,59,0.00,CLR,,0.00,WeatherDisplay:10.37,2013-02-10 19:20:00,
2013-02-10 20:30:00,39.1,26.4,29.94,NNE,26,5.0,10.0,60,0.00,CLR,,0.00,WeatherDisplay:10.37,2013-02-10 19:30:00,
2013-02-10 20:40:00,39.2,26.1,29.94,NNE,24,3.0,8.0,59,0.00,CLR,,0.00,WeatherDisplay:10.37,2013-02-10 19:40:00,
2013-02-10 20:50:00,39.1,25.9,29.94,NNE,15,5.0,9.0,59,0.00,CLR,,0.00,WeatherDisplay:10.37,2013-02-10 19:50:00,
2013-02-10 21:00:00,39.3,26.2,29.94,NNE,29,5.0,6.0,59,0.00,CLR,,0.00,WeatherDisplay:10.37,2013-02-10 20:00:00,
2013-02-10 21:10:00,39.4,25.8,29.94,NNE,14,3.0,5.0,58,0.00,CLR,,0.00,WeatherDisplay:10.37,2013-02-10 20:10:00,
2013-02-10 21:20:00,39.5,25.5,29.94,NNE,24,3.0,6.0,57,0.00,CLR,,0.00,WeatherDisplay:10.37,2013-02-10 20:20:00,
2013-02-10 21:30:00,39.4,25.0,29.94,NNE,31,5.0,7.0,56,0.00,CLR,,0.00,WeatherDisplay:10.37,2013-02-10 20:30:00,
2013-02-10 21:40:00,39.5,25.5,29.94,NNE,12,2.0,6.0,57,0.00,CLR,,0.00,WeatherDisplay:10.37,2013-02-10 20:40:00,
2013-02-10 21:50:00,39.5,25.5,29.94,North,9,2.0,6.0,57,0.00,CLR,,0.00,WeatherDisplay:10.37,2013-02-10 20:50:00,
2013-02-10 22:00:00,39.3,25.7,29.95,North,0,0.0,3.0,58,0.00,CLR,,0.00,WeatherDisplay:10.37,2013-02-10 21:00:00,
2013-02-10 22:10:00,39.4,25.4,29.95,NNE,26,2.0,5.0,57,0.00,CLR,,0.00,WeatherDisplay:10.37,2013-02-10 21:10:00,
2013-02-10 22:20:00,39.1,25.6,29.95,NNE,13,2.0,6.0,58,0.00,CLR,,0.00,WeatherDisplay:10.37,2013-02-10 21:20:00,
2013-02-10 22:30:00,39.1,25.6,29.95,NNE,12,1.0,4.0,58,0.00,CLR,,0.00,WeatherDisplay:10.37,2013-02-10 21:30:00,
2013-02-10 22:40:00,39.2,24.8,29.95,NNE,21,1.0,2.0,56,0.00,CLR,,0.00,WeatherDisplay:10.37,2013-02-10 21:40:00,
2013-02-10 22:50:00,39.4,25.0,29.95,NNE,20,0.0,0.0,56,0.00,CLR,,0.00,WeatherDisplay:10.37,2013-02-10 21:50:00,
2013-02-10 23:00:00,39.6,24.7,29.96,NNE,26,0.0,2.0,55,0.00,CLR,,0.00,WeatherDisplay:10.37,2013-02-10 22:00:00,
2013-02-10 23:10:00,39.5,25.5,29.95,NW,312,0.0,1.0,57,0.00,CLR,,0.00,WeatherDisplay:10.37,2013-02-10 22:10:00,
2013-02-10 23:20:00,39.4,25.8,29.96,NW,321,0.0,1.0,58,0.00,CLR,,0.00,WeatherDisplay:10.37,2013-02-10 22:20:00,
2013-02-10 23:30:00,39.6,26.0,29.96,NW,316,0.0,0.0,58,0.00,CLR,,0.00,WeatherDisplay:10.37,2013-02-10 22:30:00,
2013-02-10 23:40:00,39.8,25.8,29.97,WNW,294,0.0,3.0,57,0.00,CLR,,0.00,WeatherDisplay:10.37,2013-02-10 22:40:00,
2013-02-10 23:50:00,40.0,25.6,29.97,West,277,1.0,3.0,56,0.00,CLR,,0.00,WeatherDisplay:10.37,2013-02-10 22:50:00,